This is the latest recevied weather packets stored in our database for station/object W5DNT. If no packets are shown the sender has not sent any weather packets the latest 10 day(s).
| Time | Temp. | Humidity | Pressure | Rain* | Wind** | Luminosity | Snow |
|---|---|---|---|---|---|---|---|
| 1788362111 | 31.11° C | 66% | 1014.5 hPa | 0 mm | - | - | - |
| 1788361207 | 30° C | 69% | 1014.4 hPa | 0 mm | - | - | - |
| 1788360304 | 29.44° C | 69% | 1014.5 hPa | 0 mm | - | - | - |
| 1788359461 | 28.89° C | 70% | 1014.5 hPa | 0 mm | - | - | - |
| 1788358557 | 27.78° C | 70% | 1014.3 hPa | 0 mm | - | - | - |
| 1788357655 | 27.22° C | 72% | 1014.5 hPa | 0 mm | - | - | - |
| 1788356754 | 26.67° C | 73% | 1014.3 hPa | 0 mm | - | - | - |
| 1788355860 | 26.11° C | 74% | 1014.3 hPa | 0 mm | - | - | - |
| 1788354952 | 25° C | 75% | 1014.3 hPa | 0 mm | - | - | - |
| 1788354050 | 23.89° C | 74% | 1014.1 hPa | 0 mm | - | - | - |
| 1788353150 | 22.78° C | 73% | 1014.1 hPa | 0 mm | - | - | - |
| 1788352245 | - | - | 1014.1 hPa | 0 mm | - | - | - |
| 1788351344 | - | - | 1013.8 hPa | 0 mm | - | - | - |
| 1788350437 | - | - | 1013.7 hPa | 0 mm | - | - | - |
| 1788349534 | 23.33° C | 72% | 1013.5 hPa | 0 mm | - | - | - |
| 1788348632 | 23.33° C | 71% | 1013.5 hPa | 0 mm | - | - | - |
| 1788347730 | 23.89° C | 71% | 1013.4 hPa | 0 mm | - | - | - |
| 1788346838 | 23.89° C | 71% | 1013.4 hPa | 0 mm | - | - | - |
| 1788345949 | 23.89° C | 71% | 1013.5 hPa | 0 mm | - | - | - |
| 1788345044 | 23.89° C | 70% | 1013.6 hPa | 0 mm | - | - | - |
| 1788344123 | 24.44° C | 70% | 1013.7 hPa | 0 mm | - | - | - |
| 1788343222 | 24.44° C | 70% | 1013.8 hPa | 0 mm | - | - | - |
| 1788342321 | 24.44° C | 70% | 1013.9 hPa | 0 mm | - | - | - |
| 1788341420 | 25° C | 69% | 1013.8 hPa | 0 mm | - | - | - |
| 1788340518 | 25° C | 69% | 1014 hPa | 0 mm | - | - | - |
* Rain latest hour (hover to see other rain measurements)
** Current wind speed in m/s (hover to see current wind gust speed)